This is the latest recevied weather packets stored in our database for station/object KD9JB-1. If no packets are shown the sender has not sent any weather packets the latest 10 day(s).
| Time | Temp. | Humidity | Pressure | Rain* | Wind** | Luminosity | Snow |
|---|---|---|---|---|---|---|---|
| 1778184391 | 18.33° C | 38% | 1015.8 hPa | 0 mm | - | - | - |
| 1778184091 | 17.78° C | 37% | 1015.8 hPa | 0 mm | - | - | - |
| 1778183791 | 17.22° C | 35% | 1015.8 hPa | 0 mm | - | - | - |
| 1778183491 | 17.78° C | 35% | 1016 hPa | 0 mm | - | - | - |
| 1778183191 | 17.78° C | 35% | 1016 hPa | 0 mm | - | - | - |
| 1778182891 | 17.78° C | 36% | 1016 hPa | 0 mm | - | - | - |
| 1778182591 | 17.78° C | 35% | 1016 hPa | 0 mm | - | - | - |
| 1778182291 | 17.22° C | 33% | 1016.1 hPa | 0 mm | - | - | - |
| 1778181991 | 17.78° C | 37% | 1016.3 hPa | 0 mm | - | - | - |
| 1778181691 | 17.78° C | 35% | 1016.3 hPa | 0 mm | - | - | - |
| 1778181391 | 17.22° C | 36% | 1016.3 hPa | 0 mm | - | - | - |
| 1778181091 | 17.22° C | 36% | 1016.4 hPa | 0 mm | - | - | - |
| 1778180791 | 17.22° C | 37% | 1016.4 hPa | 0 mm | - | - | - |
| 1778180491 | 17.78° C | 37% | 1016.4 hPa | 0 mm | - | - | - |
| 1778180191 | 17.22° C | 37% | 1016.4 hPa | 0 mm | - | - | - |
| 1778179891 | 17.22° C | 35% | 1016.3 hPa | 0 mm | - | - | - |
| 1778179591 | 17.78° C | 35% | 1016.4 hPa | 0 mm | - | - | - |
| 1778179291 | 17.78° C | 33% | 1016.3 hPa | 0 mm | - | - | - |
| 1778178991 | 17.22° C | 35% | 1016.2 hPa | 0 mm | - | - | - |
| 1778178691 | 17.22° C | 40% | 1016.3 hPa | 0 mm | - | - | - |
| 1778178391 | 16.67° C | 37% | 1016.4 hPa | 0 mm | - | - | - |
| 1778178091 | 17.22° C | 35% | 1016.4 hPa | 0 mm | - | - | - |
| 1778177791 | 17.22° C | 35% | 1016.5 hPa | 0 mm | - | - | - |
| 1778177491 | 16.67° C | 38% | 1016.4 hPa | 0 mm | - | - | - |
| 1778177191 | 16.67° C | 35% | 1016.5 hPa | 0 mm | - | - | - |
* Rain latest hour (hover to see other rain measurements)
** Current wind speed in m/s (hover to see current wind gust speed)